CHH6510 ZSSS-ZJHK

Flight info

Callsign CHH6510
Flight time N/A
Altitude 40100
Route NXD61D NXD W131 AKDIM A470 DUBGO W134 ELNEX A599 PLT W19 NOMAR W18 NLG W23 ZUH R200 BIGRO G221 GIVIV W605 DOMGO
Aircraft A346/H-SDE2E3FGHIJ3J4J5M1RWXY/LB1D1

Departure

Time N/A
Airport Shanghai Hongqiao International Airport (ZSSS)

Arrival

Time 2026-05-06 08:55
Airport Haikou Meilan International Airport (ZJHK)
Time Latitude Longitude Altitude Speed Heading
2026-05-06 06:49 29.18127 118.91979 40061 ft 450 kts 233°
2026-05-06 06:50 29.15995 118.89308 40063 ft 450 kts 233°
2026-05-06 06:50 29.11778 118.84020 40064 ft 451 kts 233°
2026-05-06 06:51 29.07558 118.78735 40062 ft 451 kts 233°
2026-05-06 06:51 29.03321 118.73435 40050 ft 451 kts 233°
2026-05-06 06:52 28.99082 118.68137 40043 ft 451 kts 233°
2026-05-06 06:52 28.94822 118.62823 40047 ft 450 kts 233°
2026-05-06 06:53 28.90591 118.57549 40050 ft 451 kts 233°
2026-05-06 06:53 28.86354 118.52276 40054 ft 450 kts 233°
2026-05-06 06:54 28.82070 118.46950 40054 ft 450 kts 233°
2026-05-06 06:54 28.77850 118.41711 40052 ft 450 kts 233°
2026-05-06 06:55 28.73609 118.36453 40048 ft 449 kts 233°
2026-05-06 06:55 28.69371 118.31204 40050 ft 450 kts 233°
2026-05-06 06:56 28.65108 118.25931 40048 ft 450 kts 233°
2026-05-06 06:56 28.60873 118.20699 40052 ft 450 kts 233°
2026-05-06 06:57 28.56602 118.15429 40056 ft 450 kts 233°
2026-05-06 06:57 28.52324 118.10155 40052 ft 451 kts 233°
2026-05-06 06:58 28.48069 118.04911 40047 ft 451 kts 233°
2026-05-06 06:58 28.43815 117.99683 40045 ft 452 kts 233°
2026-05-06 06:59 28.39498 117.94444 40040 ft 452 kts 232°
2026-05-06 06:59 28.35115 117.89293 40042 ft 450 kts 231°
2026-05-06 07:00 28.30752 117.84161 40040 ft 451 kts 232°
2026-05-06 07:00 28.26411 117.79047 40037 ft 450 kts 232°
2026-05-06 07:01 28.22058 117.73922 40034 ft 451 kts 232°
2026-05-06 07:01 28.17703 117.68798 40049 ft 451 kts 232°
2026-05-06 07:02 28.13345 117.63672 40058 ft 451 kts 232°
2026-05-06 07:02 28.08944 117.58501 40058 ft 451 kts 232°
2026-05-06 07:03 28.04551 117.53357 40063 ft 451 kts 232°
2026-05-06 07:03 28.00192 117.48267 40046 ft 451 kts 232°
2026-05-06 07:04 27.95820 117.43164 40066 ft 451 kts 232°
2026-05-06 07:04 27.91437 117.38045 40077 ft 451 kts 232°
2026-05-06 07:05 27.87062 117.32943 40091 ft 450 kts 231°
2026-05-06 07:05 27.82675 117.27834 40101 ft 450 kts 231°
2026-05-06 07:06 27.78278 117.22714 40097 ft 450 kts 231°
2026-05-06 07:06 27.73893 117.17617 40083 ft 450 kts 231°
2026-05-06 07:07 27.69509 117.12527 40074 ft 451 kts 231°
2026-05-06 07:07 27.65142 117.07460 40072 ft 450 kts 231°
2026-05-06 07:08 27.60725 117.02343 40072 ft 450 kts 231°
2026-05-06 07:08 27.56339 116.97263 40066 ft 449 kts 231°
2026-05-06 07:09 27.51961 116.92207 40070 ft 449 kts 232°
2026-05-06 07:09 27.47642 116.87171 40067 ft 448 kts 232°
2026-05-06 07:10 27.43315 116.82108 40050 ft 448 kts 232°
2026-05-06 07:10 27.38976 116.77032 40042 ft 449 kts 232°
2026-05-06 07:11 27.34631 116.71955 40039 ft 450 kts 232°
2026-05-06 07:11 27.30277 116.66875 40040 ft 450 kts 232°
2026-05-06 07:12 27.25940 116.61818 40046 ft 450 kts 232°
2026-05-06 07:12 27.21577 116.56741 40043 ft 449 kts 232°
2026-05-06 07:13 27.17267 116.51606 40042 ft 449 kts 233°
2026-05-06 07:13 27.13027 116.46452 40040 ft 449 kts 233°
2026-05-06 07:14 27.08776 116.41294 40056 ft 449 kts 233°
2026-05-06 07:14 27.04504 116.36128 40057 ft 448 kts 233°
2026-05-06 07:15 27.00246 116.30984 40067 ft 448 kts 233°
2026-05-06 07:15 26.96016 116.25877 40049 ft 449 kts 233°
2026-05-06 07:16 26.91716 116.20695 40051 ft 448 kts 233°
2026-05-06 07:16 26.87455 116.15527 40053 ft 448 kts 233°
2026-05-06 07:17 26.83248 116.10406 40053 ft 449 kts 233°
2026-05-06 07:17 26.79005 116.05250 40038 ft 449 kts 233°
2026-05-06 07:18 26.74762 116.00099 40043 ft 449 kts 233°
2026-05-06 07:18 26.70526 115.94962 40040 ft 450 kts 233°
2026-05-06 07:19 26.66265 115.89801 40045 ft 450 kts 233°
2026-05-06 07:19 26.62008 115.84650 40051 ft 449 kts 233°
2026-05-06 07:20 26.57757 115.79514 40052 ft 449 kts 233°
2026-05-06 07:20 26.53517 115.74397 40053 ft 449 kts 233°
2026-05-06 07:21 26.49252 115.69251 40042 ft 449 kts 233°
2026-05-06 07:21 26.44971 115.64096 40054 ft 449 kts 233°
2026-05-06 07:22 26.40718 115.58980 40052 ft 449 kts 233°
2026-05-06 07:22 26.36480 115.53887 40056 ft 449 kts 233°
2026-05-06 07:23 26.32192 115.48738 40057 ft 450 kts 233°
2026-05-06 07:23 26.27938 115.43642 40053 ft 450 kts 233°
2026-05-06 07:24 26.23638 115.38493 40042 ft 450 kts 233°
2026-05-06 07:24 26.19364 115.33380 40041 ft 450 kts 233°
2026-05-06 07:25 26.15079 115.28263 40034 ft 450 kts 233°
2026-05-06 07:25 26.10792 115.23145 40035 ft 450 kts 233°
2026-05-06 07:26 26.06471 115.17994 40031 ft 451 kts 233°
2026-05-06 07:26 26.02175 115.12875 40038 ft 451 kts 233°
2026-05-06 07:27 25.97868 115.07749 40044 ft 451 kts 233°
2026-05-06 07:27 25.93570 115.02637 40052 ft 452 kts 233°
2026-05-06 07:28 25.89262 114.97526 40056 ft 451 kts 233°
2026-05-06 07:28 25.82123 114.90556 40061 ft 463 kts 220°
2026-05-06 07:29 25.76422 114.87116 40058 ft 472 kts 209°
2026-05-06 07:29 25.70077 114.84836 40054 ft 480 kts 200°
2026-05-06 07:30 25.63502 114.83199 40047 ft 481 kts 199°
2026-05-06 07:30 25.56959 114.81600 40041 ft 481 kts 199°
2026-05-06 07:31 25.50431 114.79991 40040 ft 481 kts 199°
2026-05-06 07:31 25.43868 114.78368 40040 ft 481 kts 199°
2026-05-06 07:32 25.37326 114.76749 40038 ft 481 kts 199°
2026-05-06 07:32 25.30779 114.75131 40032 ft 481 kts 199°
2026-05-06 07:33 25.24256 114.73519 40027 ft 481 kts 199°
2026-05-06 07:33 25.17736 114.71911 40030 ft 480 kts 199°
2026-05-06 07:34 25.11173 114.70294 40038 ft 480 kts 199°
2026-05-06 07:34 25.04648 114.68684 40050 ft 481 kts 199°
2026-05-06 07:35 24.98093 114.67072 40057 ft 480 kts 198°
2026-05-06 07:35 24.91541 114.65459 40057 ft 480 kts 198°
2026-05-06 07:36 24.84970 114.63846 40057 ft 481 kts 198°
2026-05-06 07:36 24.78434 114.62237 40051 ft 480 kts 199°
2026-05-06 07:37 24.72036 114.60197 40051 ft 475 kts 205°
2026-05-06 07:37 24.65897 114.57407 40058 ft 470 kts 212°
2026-05-06 07:38 24.60126 114.53967 40068 ft 467 kts 216°
2026-05-06 07:38 24.54451 114.50359 40077 ft 467 kts 216°
2026-05-06 07:39 24.48822 114.46795 40085 ft 467 kts 216°
2026-05-06 07:39 24.43169 114.43229 40082 ft 467 kts 216°
2026-05-06 07:40 24.37483 114.39658 40076 ft 468 kts 216°
2026-05-06 07:40 24.31837 114.36125 40076 ft 467 kts 216°
2026-05-06 07:41 24.26189 114.32589 40082 ft 467 kts 215°
2026-05-06 07:41 24.20485 114.29017 40087 ft 468 kts 215°
2026-05-06 07:42 24.14815 114.25467 40090 ft 468 kts 215°
2026-05-06 07:42 24.09112 114.21905 40092 ft 468 kts 215°
2026-05-06 07:43 24.03396 114.18344 40094 ft 469 kts 215°
2026-05-06 07:43 23.97686 114.14790 40102 ft 469 kts 215°
2026-05-06 07:44 23.91987 114.11240 40099 ft 468 kts 215°
2026-05-06 07:44 23.86319 114.07713 40092 ft 468 kts 215°
2026-05-06 07:45 23.80638 114.04179 40085 ft 468 kts 215°
2026-05-06 07:45 23.74937 114.00637 40078 ft 468 kts 215°
2026-05-06 07:46 23.69239 113.97099 40069 ft 468 kts 215°
2026-05-06 07:46 23.63546 113.93564 40054 ft 468 kts 215°
2026-05-06 07:47 23.57838 113.90027 40039 ft 468 kts 215°
2026-05-06 07:47 23.51997 113.86784 40025 ft 472 kts 208°
2026-05-06 07:48 23.45778 113.84209 40018 ft 476 kts 202°
2026-05-06 07:48 23.39310 113.82208 40016 ft 478 kts 200°
2026-05-06 07:49 23.32875 113.80277 40016 ft 479 kts 200°
2026-05-06 07:49 23.26437 113.78342 40011 ft 478 kts 200°
2026-05-06 07:50 23.20000 113.76406 40007 ft 478 kts 200°
2026-05-06 07:50 23.13525 113.74459 40005 ft 478 kts 200°
2026-05-06 07:51 23.07069 113.72518 40004 ft 478 kts 200°
2026-05-06 07:51 23.00656 113.70592 40004 ft 478 kts 200°
2026-05-06 07:52 22.94191 113.68650 40004 ft 479 kts 200°
2026-05-06 07:52 22.87765 113.66723 40007 ft 478 kts 200°
2026-05-06 07:53 22.81293 113.64757 40009 ft 478 kts 200°
2026-05-06 07:53 22.74855 113.62791 40016 ft 478 kts 200°
2026-05-06 07:54 22.68381 113.60817 40019 ft 478 kts 200°
2026-05-06 07:54 22.61942 113.58856 40023 ft 478 kts 200°
2026-05-06 07:55 22.55547 113.56910 40021 ft 478 kts 200°
2026-05-06 07:55 22.49150 113.54959 40023 ft 478 kts 200°
2026-05-06 07:56 22.42700 113.52979 40025 ft 478 kts 200°
2026-05-06 07:56 22.36213 113.50986 40022 ft 478 kts 200°
2026-05-06 07:57 22.29914 113.48753 40021 ft 472 kts 210°
2026-05-06 07:57 22.24417 113.44971 40026 ft 463 kts 225°
2026-05-06 07:58 22.20151 113.39821 40029 ft 455 kts 240°
2026-05-06 07:58 22.17310 113.33781 40038 ft 451 kts 251°
2026-05-06 07:59 22.15013 113.27463 40035 ft 451 kts 252°
2026-05-06 07:59 22.12582 113.21212 40035 ft 452 kts 249°
2026-05-06 08:00 22.10010 113.15031 40028 ft 452 kts 249°
2026-05-06 08:00 22.07433 113.08837 40024 ft 452 kts 249°
2026-05-06 08:01 22.04868 113.02676 40024 ft 452 kts 249°
2026-05-06 08:01 22.02335 112.96450 40021 ft 451 kts 250°
2026-05-06 08:02 21.99906 112.90151 40024 ft 451 kts 250°
2026-05-06 08:02 21.97475 112.83885 40027 ft 452 kts 250°
2026-05-06 08:03 21.94986 112.77623 40027 ft 453 kts 249°
2026-05-06 08:03 21.92446 112.71355 40028 ft 453 kts 250°
2026-05-06 08:04 21.89921 112.65108 40022 ft 453 kts 250°
2026-05-06 08:04 21.87402 112.58869 40019 ft 453 kts 250°
2026-05-06 08:05 21.84901 112.52668 40015 ft 453 kts 250°
2026-05-06 08:05 21.82387 112.46338 40011 ft 453 kts 250°
2026-05-06 08:06 21.79917 112.40112 40009 ft 453 kts 250°
2026-05-06 08:06 21.77430 112.33851 40008 ft 454 kts 250°
2026-05-06 08:07 21.74961 112.27646 40007 ft 454 kts 250°
2026-05-06 08:07 21.72481 112.21421 40008 ft 454 kts 249°
2026-05-06 08:08 21.69978 112.15147 39878 ft 449 kts 249°
2026-05-06 08:08 21.68763 112.12102 39303 ft 447 kts 249°
2026-05-06 08:08 21.67541 112.09042 38582 ft 447 kts 249°
2026-05-06 08:09 21.66322 112.05989 38105 ft 444 kts 249°
2026-05-06 08:09 21.65104 112.02943 37801 ft 443 kts 249°
2026-05-06 08:09 21.63891 111.99908 37238 ft 442 kts 249°
2026-05-06 08:09 21.62680 111.96880 36455 ft 445 kts 249°
2026-05-06 08:10 21.61469 111.93853 35646 ft 447 kts 249°
2026-05-06 08:10 21.60240 111.90788 34873 ft 449 kts 249°
2026-05-06 08:10 21.58931 111.87757 34195 ft 450 kts 246°
2026-05-06 08:10 21.57440 111.84784 33916 ft 453 kts 243°
2026-05-06 08:11 21.55792 111.81905 33639 ft 458 kts 239°
2026-05-06 08:11 21.53932 111.79049 33357 ft 468 kts 236°
2026-05-06 08:11 21.51913 111.76323 33083 ft 472 kts 232°
2026-05-06 08:11 21.49749 111.73586 32990 ft 473 kts 232°
2026-05-06 08:12 21.45442 111.68180 32991 ft 473 kts 232°
2026-05-06 08:12 21.41146 111.62788 32989 ft 474 kts 232°
2026-05-06 08:13 21.36849 111.57394 32987 ft 474 kts 232°
2026-05-06 08:13 21.32553 111.52003 32986 ft 475 kts 232°
2026-05-06 08:14 21.28265 111.46626 32985 ft 475 kts 232°
2026-05-06 08:14 21.23957 111.41232 32984 ft 475 kts 232°
2026-05-06 08:15 21.19646 111.35837 32981 ft 475 kts 232°
2026-05-06 08:15 21.15323 111.30432 32981 ft 475 kts 232°
2026-05-06 08:16 21.11033 111.25072 32978 ft 475 kts 232°
2026-05-06 08:16 21.06720 111.19686 32737 ft 477 kts 232°
2026-05-06 08:17 21.04573 111.17004 31948 ft 481 kts 232°
2026-05-06 08:17 21.02379 111.14265 31118 ft 482 kts 232°
2026-05-06 08:17 21.00216 111.11572 30358 ft 483 kts 232°
2026-05-06 08:17 20.98001 111.08892 29677 ft 482 kts 228°
2026-05-06 08:18 20.95494 111.06496 29204 ft 478 kts 220°
2026-05-06 08:18 20.92769 111.04500 28754 ft 475 kts 213°
2026-05-06 08:18 20.89847 111.02888 28301 ft 471 kts 207°
2026-05-06 08:18 20.86853 111.01448 27824 ft 467 kts 206°
2026-05-06 08:19 20.83906 111.00066 27354 ft 462 kts 206°
2026-05-06 08:19 20.80942 110.98677 26889 ft 458 kts 206°
2026-05-06 08:19 20.78058 110.97321 26433 ft 453 kts 206°
2026-05-06 08:19 20.75173 110.95958 25975 ft 449 kts 206°
2026-05-06 08:20 20.72324 110.94607 25515 ft 445 kts 206°
2026-05-06 08:20 20.69540 110.93285 25064 ft 441 kts 206°
2026-05-06 08:20 20.66707 110.91941 24604 ft 437 kts 206°
2026-05-06 08:20 20.63922 110.90621 24148 ft 433 kts 206°
2026-05-06 08:21 20.61190 110.89326 23704 ft 429 kts 206°
2026-05-06 08:21 20.58485 110.88042 23305 ft 424 kts 206°
2026-05-06 08:21 20.55790 110.86767 23201 ft 416 kts 206°
2026-05-06 08:21 20.53156 110.85519 23102 ft 411 kts 206°
2026-05-06 08:22 20.50482 110.84465 22912 ft 402 kts 198°
2026-05-06 08:22 20.47775 110.83854 22692 ft 396 kts 190°
2026-05-06 08:22 20.45054 110.83577 22273 ft 393 kts 187°
2026-05-06 08:22 20.42341 110.83374 21868 ft 390 kts 186°
2026-05-06 08:23 20.39622 110.83179 21470 ft 386 kts 186°
2026-05-06 08:23 20.36965 110.82986 21086 ft 383 kts 186°
2026-05-06 08:23 20.34297 110.82784 20696 ft 379 kts 186°
2026-05-06 08:23 20.31671 110.82584 20311 ft 375 kts 186°
2026-05-06 08:24 20.29075 110.82384 19926 ft 372 kts 186°
2026-05-06 08:24 20.26488 110.82182 19544 ft 368 kts 186°
2026-05-06 08:24 20.23938 110.81983 19165 ft 365 kts 186°
2026-05-06 08:24 20.21430 110.81789 18792 ft 362 kts 186°
2026-05-06 08:25 20.18895 110.81592 18413 ft 359 kts 186°
2026-05-06 08:25 20.16412 110.81400 18043 ft 356 kts 186°
2026-05-06 08:25 20.13942 110.81208 17673 ft 353 kts 186°
2026-05-06 08:25 20.11496 110.81018 17309 ft 350 kts 186°
2026-05-06 08:26 20.09069 110.80829 16949 ft 347 kts 186°
2026-05-06 08:26 20.06681 110.80643 16584 ft 345 kts 186°
2026-05-06 08:26 20.04286 110.80457 16207 ft 343 kts 186°
2026-05-06 08:26 20.01906 110.80262 15848 ft 341 kts 186°
2026-05-06 08:27 19.99526 110.80059 15481 ft 339 kts 186°
2026-05-06 08:27 19.97185 110.79861 15109 ft 337 kts 186°
2026-05-06 08:27 19.94825 110.79660 14743 ft 335 kts 186°
2026-05-06 08:27 19.92520 110.79464 14383 ft 333 kts 186°
2026-05-06 08:28 19.90162 110.79265 14015 ft 331 kts 186°
2026-05-06 08:28 19.87831 110.79068 13645 ft 330 kts 186°
2026-05-06 08:28 19.85527 110.78873 13298 ft 327 kts 186°
2026-05-06 08:28 19.83254 110.78707 12953 ft 325 kts 185°
2026-05-06 08:29 19.80965 110.78567 12597 ft 323 kts 185°
2026-05-06 08:29 19.78807 110.78062 12197 ft 319 kts 208°
2026-05-06 08:29 19.77089 110.76623 11841 ft 314 kts 232°
2026-05-06 08:29 19.76088 110.74599 11470 ft 311 kts 255°
2026-05-06 08:30 19.75882 110.72340 11117 ft 308 kts 270°
2026-05-06 08:30 19.75912 110.70086 10770 ft 307 kts 270°
2026-05-06 08:30 19.75935 110.67829 10413 ft 305 kts 270°
2026-05-06 08:30 19.75946 110.65590 10144 ft 300 kts 270°
2026-05-06 08:31 19.75950 110.63425 10081 ft 287 kts 270°
2026-05-06 08:31 19.75949 110.61336 9965 ft 278 kts 270°
2026-05-06 08:31 19.75946 110.59288 9641 ft 278 kts 270°
2026-05-06 08:31 19.75943 110.57264 9319 ft 277 kts 270°
2026-05-06 08:32 19.75940 110.55215 9009 ft 275 kts 270°
2026-05-06 08:32 19.75935 110.53169 8717 ft 274 kts 270°
2026-05-06 08:32 19.75930 110.51148 8416 ft 273 kts 270°
2026-05-06 08:32 19.75925 110.49146 8109 ft 272 kts 270°
2026-05-06 08:33 19.75921 110.47156 7807 ft 270 kts 270°
2026-05-06 08:33 19.75917 110.45168 7527 ft 269 kts 270°
2026-05-06 08:33 19.75913 110.43167 7225 ft 268 kts 269°
2026-05-06 08:33 19.75909 110.41183 6922 ft 267 kts 269°
2026-05-06 08:34 19.75904 110.39233 6639 ft 266 kts 269°
2026-05-06 08:34 19.75892 110.35316 6063 ft 265 kts 269°
2026-05-06 08:34 19.75886 110.33358 5765 ft 265 kts 269°
2026-05-06 08:35 19.75879 110.31403 5461 ft 265 kts 269°
2026-05-06 08:35 19.75872 110.29436 5172 ft 265 kts 269°
2026-05-06 08:35 19.75865 110.27499 4884 ft 265 kts 269°
2026-05-06 08:35 19.75859 110.25551 4590 ft 265 kts 269°
2026-05-06 08:36 19.75879 110.23601 4279 ft 266 kts 275°
2026-05-06 08:36 19.76518 110.21762 3952 ft 269 kts 307°
2026-05-06 08:36 19.77852 110.20373 3661 ft 268 kts 319°
2026-05-06 08:36 19.79278 110.19083 3381 ft 268 kts 320°
2026-05-06 08:37 19.80658 110.17821 3302 ft 257 kts 319°
2026-05-06 08:37 19.81978 110.16593 3241 ft 247 kts 319°
2026-05-06 08:37 19.83239 110.15406 3177 ft 237 kts 319°
2026-05-06 08:37 19.84465 110.14288 3103 ft 227 kts 328°
2026-05-06 08:38 19.85920 110.13765 2929 ft 221 kts
2026-05-06 08:38 19.87456 110.13766 2800 ft 217 kts
2026-05-06 08:38 19.88957 110.13799 2675 ft 217 kts
2026-05-06 08:38 19.90483 110.13820 2485 ft 217 kts
2026-05-06 08:39 19.91977 110.14025 2196 ft 213 kts 29°
2026-05-06 08:39 19.93044 110.15010 2021 ft 201 kts 65°
2026-05-06 08:39 19.93401 110.16428 2005 ft 199 kts 87°
2026-05-06 08:39 19.93455 110.17898 1998 ft 200 kts 91°
2026-05-06 08:40 19.93451 110.19386 1990 ft 200 kts 91°
2026-05-06 08:40 19.93438 110.20864 1989 ft 199 kts 92°
2026-05-06 08:40 19.93430 110.22347 1994 ft 199 kts 91°
2026-05-06 08:40 19.93426 110.23806 1996 ft 199 kts 91°
2026-05-06 08:41 19.93427 110.25295 1997 ft 199 kts 91°
2026-05-06 08:41 19.93429 110.26758 1996 ft 198 kts 91°
2026-05-06 08:41 19.93432 110.28221 1990 ft 198 kts 91°
2026-05-06 08:41 19.93436 110.29692 1995 ft 198 kts 91°
2026-05-06 08:42 19.93440 110.31149 1999 ft 197 kts 91°
2026-05-06 08:42 19.93444 110.32536 2004 ft 177 kts 91°
2026-05-06 08:42 19.93447 110.33792 1902 ft 164 kts 91°
2026-05-06 08:42 19.93449 110.34955 1710 ft 150 kts 91°
2026-05-06 08:43 19.93451 110.36028 1510 ft 144 kts 91°
2026-05-06 08:43 19.93453 110.37100 1327 ft 143 kts 91°
2026-05-06 08:43 19.93456 110.38146 1150 ft 143 kts 91°
2026-05-06 08:43 19.93458 110.39213 968 ft 143 kts 90°
2026-05-06 08:44 19.93467 110.40256 790 ft 143 kts 91°
2026-05-06 08:44 19.93466 110.41314 613 ft 142 kts 90°
2026-05-06 08:44 19.93469 110.42366 442 ft 143 kts 91°
2026-05-06 08:44 19.93464 110.43414 257 ft 142 kts 89°
2026-05-06 08:45 19.93470 110.44473 93 ft 141 kts 89°
2026-05-06 08:45 19.93473 110.45519 170 ft 159 kts 89°
2026-05-06 08:45 19.93465 110.46708 866 ft 166 kts 89°
2026-05-06 08:45 19.93475 110.47907 1746 ft 162 kts 91°
2026-05-06 08:46 19.93423 110.49068 2390 ft 162 kts 108°
2026-05-06 08:46 19.92721 110.50009 2833 ft 176 kts 149°
2026-05-06 08:46 19.91428 110.50361 3015 ft 207 kts 172°
2026-05-06 08:46 19.89969 110.50437 3010 ft 209 kts 176°
2026-05-06 08:47 19.88509 110.50431 3006 ft 209 kts 185°
2026-05-06 08:47 19.87185 110.49784 2996 ft 214 kts 220°
2026-05-06 08:47 19.86444 110.48405 3005 ft 220 kts 255°
2026-05-06 08:47 19.86291 110.46783 3022 ft 222 kts 265°
2026-05-06 08:48 19.86252 110.45123 3014 ft 222 kts 267°
2026-05-06 08:48 19.86231 110.43481 3009 ft 222 kts 267°
2026-05-06 08:48 19.86209 110.41822 3009 ft 221 kts 268°
2026-05-06 08:48 19.86189 110.40245 2992 ft 207 kts 268°
2026-05-06 08:49 19.86170 110.38747 2995 ft 201 kts 268°
2026-05-06 08:49 19.86150 110.37263 3001 ft 201 kts 267°
2026-05-06 08:49 19.86131 110.35786 2964 ft 196 kts 268°
2026-05-06 08:49 19.86111 110.34358 2779 ft 191 kts 268°
2026-05-06 08:50 19.86270 110.32980 2572 ft 186 kts 295°
2026-05-06 08:50 19.87122 110.32054 2348 ft 172 kts 340°
2026-05-06 08:50 19.88272 110.31758 2196 ft 169 kts 354°
2026-05-06 08:50 19.89439 110.31606 2044 ft 168 kts 357°
2026-05-06 08:51 19.90600 110.31472 2003 ft 168 kts 357°
2026-05-06 08:51 19.91770 110.31340 1997 ft 168 kts 360°
2026-05-06 08:51 19.92855 110.31614 1971 ft 159 kts 44°
2026-05-06 08:51 19.93390 110.32573 1987 ft 148 kts 82°
2026-05-06 08:52 19.93482 110.33644 1920 ft 144 kts 91°
2026-05-06 08:52 19.93473 110.34701 1743 ft 144 kts 93°
2026-05-06 08:52 19.93455 110.35767 1559 ft 143 kts 92°
2026-05-06 08:52 19.93448 110.36822 1376 ft 143 kts 91°
2026-05-06 08:53 19.93452 110.37881 1195 ft 142 kts 91°
2026-05-06 08:53 19.93461 110.38928 1017 ft 142 kts 90°
2026-05-06 08:53 19.93461 110.39977 840 ft 142 kts 91°
2026-05-06 08:53 19.93464 110.41019 660 ft 141 kts 89°
2026-05-06 08:54 19.93472 110.42061 485 ft 141 kts 90°
2026-05-06 08:54 19.93464 110.43113 307 ft 141 kts 90°
2026-05-06 08:54 19.93467 110.44147 134 ft 140 kts 89°
2026-05-06 08:54 19.93462 110.45124 80 ft 120 kts 89°
2026-05-06 08:55 19.93477 110.45814 81 ft 66 kts 89°
2026-05-06 08:55 19.93479 110.46178 82 ft 43 kts 90°
2026-05-06 08:55 19.93499 110.46461 84 ft 37 kts 72°
2026-05-06 08:55 19.93593 110.46660 84 ft 17 kts 60°
2026-05-06 08:56 19.93644 110.46755 83 ft 11 kts 58°
2026-05-06 08:56 19.93712 110.46792 83 ft 13 kts
2026-05-06 08:56 19.93819 110.46795 82 ft 16 kts 359°
2026-05-06 08:56 19.93940 110.46795 79 ft 16 kts 359°
2026-05-06 08:57 19.94058 110.46794 78 ft 18 kts 359°
2026-05-06 08:57 19.94172 110.46794 76 ft 12 kts 359°
2026-05-06 08:57 19.94276 110.46793 73 ft 17 kts 360°
2026-05-06 08:57 19.94416 110.46793 68 ft 22 kts 360°
2026-05-06 08:58 19.94595 110.46793 61 ft 28 kts 360°
2026-05-06 08:58 19.94780 110.46792 54 ft 27 kts 360°
2026-05-06 08:58 19.94983 110.46791 53 ft 30 kts 360°
2026-05-06 08:58 19.95140 110.46791 61 ft 12 kts
2026-05-06 08:59 19.95198 110.46757 64 ft 9 kts 293°
2026-05-06 08:59 19.95206 110.46676 65 ft 12 kts 270°
2026-05-06 08:59 19.95206 110.46572 67 ft 15 kts 269°
2026-05-06 08:59 19.95205 110.46452 67 ft 17 kts 270°
2026-05-06 09:00 19.95205 110.46320 69 ft 18 kts 269°
2026-05-06 09:00 19.95204 110.46184 74 ft 17 kts 269°
2026-05-06 09:00 19.95204 110.46064 78 ft 10 kts 270°
2026-05-06 09:00 19.95196 110.45994 81 ft 8 kts 236°
2026-05-06 09:01 19.95134 110.45967 83 ft 10 kts 185°
2026-05-06 09:01 19.95058 110.45961 85 ft 9 kts 198°
2026-05-06 09:01 19.94997 110.45915 85 ft 10 kts 221°
2026-05-06 09:01 19.94967 110.45843 84 ft 12 kts 263°
2026-05-06 09:02 19.94964 110.45771 84 ft 10 kts 269°
2026-05-06 09:02 19.94964 110.45682 83 ft 9 kts 270°
2026-05-06 09:02 19.94953 110.45633 83 ft 1 kts 223°
2026-05-06 09:02 19.94939 110.45623 83 ft 3 kts 211°
2026-05-06 09:03 19.94908 110.45611 83 ft 4 kts 192°
2026-05-06 09:03 19.94881 110.45606 83 ft 3 kts 190°
2026-05-06 09:03 19.94872 110.45603 83 ft 0 kts 190°